Flag for U.S.A. Weather past 2 weeks in Rochester, New York, U.S.A.

Now
16 °F

Passing clouds.


Feels Like: 5 °F
Forecast: 14 / 18 °F
Wind: 8 mph from Northeast

Location: Greater Rochester International Airport

Current Time: Jan 25, 2015 at 6:30:47 PM

Latest Report: Jan 25, 2015 at 5:54 PM


Visibility: 10 mi

Pressure: 30.04 "Hg

Humidity: 62%

Dew point: 5 °F

Location of RochesterLocation

Historic Weather in Rochester — Graph

°F

Rochester temperature yesterday

Maximum temperature yesterday: 33 °F (at 11:54 PM)
Minimum temperature yesterday: 18 °F (at 4:54 AM)
Average temperature yesterday: 28 °F

Past Weeks' High & Low Weather Summary

 TemperatureHumidityPressure
High41 °F (Jan 18, 9:54 AM)96% (Jan 12, 1:54 AM)30.82 "Hg (Jan 12, 1:54 AM)
Low-8 °F (Jan 14, 5:54 AM)38% (Jan 11, 2:54 PM)29.47 "Hg (Jan 24, 5:58 PM)
Average22 °F70%30.13 "Hg
* Reported Jan 10 4:54 PM — Jan 25 4:54 PM, Rochester, Weather by CustomWeather, © 2014

Note: Actual official high and low records may vary slightly from our data, if they occured in-between our weather recording intervals... More about our weather records

Advertising

Rochester weather history for previous 24 hours

 ConditionsComfort  
Time TempWeatherWind HumidityBarometerVisibility
4:54 PM
Jan 25
18 °FScattered clouds.7 mph57%30.02 "Hg10 mi
3:54 PM19 °FScattered clouds.6 mph52%29.98 "Hg10 mi
2:54 PM20 °FScattered clouds.No wind57%29.97 "Hg10 mi
1:54 PM18 °FPartly sunny.6 mph65%29.95 "Hg9 mi
12:54 PM18 °FLight snow. Partly sunny.7 mph68%29.95 "Hg7 mi
11:54 AM18 °FLight snow. Overcast.9 mph74%29.95 "Hg5 mi
10:54 AM17 °FLight snow. Overcast.10 mph74%29.94 "Hg4 mi
9:54 AM18 °FLight snow. Overcast.12 mph74%29.92 "Hg4 mi
8:54 AM19 °FPartly sunny.10 mph74%29.88 "Hg9 mi
7:54 AM19 °FPartly sunny.8 mph71%29.85 "Hg10 mi
6:54 AM20 °FPassing clouds.17 mph74%29.82 "Hg10 mi
5:54 AM23 °FPassing clouds.12 mph63%29.76 "Hg10 mi
4:54 AM26 °FPassing clouds.20 mph66%29.70 "Hg10 mi
3:54 AM29 °FPartly cloudy.22 mph69%29.65 "Hg10 mi
2:54 AM32 °FPartly cloudy.10 mph66%29.59 "Hg10 mi
1:54 AM33 °FOvercast.14 mph70%29.55 "Hg10 mi
12:54 AM33 °FLight snow. Overcast.15 mph85%29.53 "Hg7 mi
11:54 PM
Jan 24
33 °FLight snow. Overcast.15 mph85%29.52 "Hg7 mi
10:54 PM32 °FLight snow. Ice fog.14 mph88%29.51 "Hg3 mi
9:54 PM32 °FLight snow. Overcast.16 mph85%29.51 "Hg7 mi
8:54 PM32 °FLight snow. Mostly cloudy.15 mph85%29.50 "Hg9 mi
7:54 PM31 °FLight snow. Mostly cloudy.13 mph89%29.51 "Hg10 mi
6:54 PM31 °FLight freezing rain. Overcast.18 mph85%29.51 "Hg8 mi
Weather by CustomWeather, © 2014

See weather overviewHow to use our weather pages